Weather in Tehran

Iran     35°39′42″N   51°22′03″E
temp.,
°C
wind,
m/s
gust,
m/s
humid.,
%
clouds,
%
prec.,
mm/h
press.,
hPa
HPBL,
m
13 june, sun
sun1301:30+30nne12140 0.0 100578
04:30+28ene11120 0.0 100536
07:30+27ese35190 0.0 1007613
10:30+29sse34180 0.0 10081224
13:30+32s44130 0.0 10051903
16:30+33ssw25110 0.0 10032359
19:30+33sse1490 0.0 10022549
22:30+32s23100 0.0 10031365
14 june, mon
mon1401:30+29wnw45180 0.0 1003206
04:30+28nnw45190 0.0 1003146
07:30+28nw44190 0.0 1004228
10:30+30sw13170 0.0 10051071
13:30+32wsw43110 0.0 10052060
16:30+33wsw5370 0.0 10042016
19:30+33w5480 0.0 10041353
22:30+30nnw34190 0.0 1006339
15 june, tue
tue1501:30+29nnw23170 0.0 1006103
04:30+27se24170 0.0 1007290
07:30+27ese35270 0.0 1010708
10:30+28s33250 0.0 10101121
13:30+31s32190 0.0 10071540
16:30+33s32130 0.0 10051902
19:30+33ssw22120 0.0 10041752
22:30+32s12130 0.0 1005454
16 june, wed
wed1601:30+30nne12160 0.0 1005178
04:30+29nne11170 0.0 100537
07:30+29sse34210 0.0 1008460
10:30+31sse34160 0.0 10081365
13:30+33se44130 0.0 10062117
16:30+35sse44110 0.0 10042515
19:30+35se33100 0.0 10042308
22:30+33se46110 0.0 10061291
17 june, thu
thu1701:30+31se47120 0.0 10071523
04:30+29sse23140 0.0 1008315
07:30+28sse12160 0.0 1009367
10:30+30sse34150 0.0 1009934
13:30+33se45110 0.0 10071623
16:30+35se4490 0.0 10041813
19:30+35se3480 0.0 10031538
22:30+32sse45100 0.0 1005934